ANZ1743 YSSY-NZCH

Flight info

Callsign ANZ1743
Flight time 1h 53m
Altitude 41000
Route CAWLY M636 PLUGA N750 VANDA
Aircraft A359/H-SDE2E3GHIJ3J4J5LM1ORWXY/LB1D1

Departure

Time 2026-04-26 07:39
Airport Sydney Kingsford Smith International Airport (YSSY)

Arrival

Time 2026-04-26 09:33
Airport Christchurch International Airport (NZCH)
Time Latitude Longitude Altitude Speed Heading
2026-04-26 06:40 -33.93832 151.16835 27 ft 0 kts 70°
2026-04-26 07:22 -33.93834 151.16829 26 ft 3 kts 70°
2026-04-26 07:23 -33.93840 151.16808 27 ft 3 kts 70°
2026-04-26 07:23 -33.93847 151.16786 26 ft 3 kts 83°
2026-04-26 07:23 -33.93845 151.16761 25 ft 3 kts 126°
2026-04-26 07:23 -33.93832 151.16746 25 ft 0 kts 159°
2026-04-26 07:28 -33.93855 151.16755 27 ft 5 kts 166°
2026-04-26 07:28 -33.93896 151.16765 27 ft 7 kts 168°
2026-04-26 07:28 -33.93951 151.16780 27 ft 9 kts 166°
2026-04-26 07:29 -33.94004 151.16797 27 ft 6 kts 165°
2026-04-26 07:29 -33.94043 151.16824 27 ft 7 kts 132°
2026-04-26 07:29 -33.94050 151.16885 27 ft 8 kts 79°
2026-04-26 07:29 -33.94033 151.16962 27 ft 11 kts 74°
2026-04-26 07:30 -33.94012 151.17051 27 ft 10 kts 73°
2026-04-26 07:30 -33.93997 151.17115 29 ft 1 kts 74°
2026-04-26 07:30 -33.93994 151.17126 29 ft 2 kts 73°
2026-04-26 07:30 -33.93986 151.17160 29 ft 6 kts 76°
2026-04-26 07:31 -33.93993 151.17209 28 ft 6 kts 121°
2026-04-26 07:31 -33.94027 151.17234 27 ft 6 kts 158°
2026-04-26 07:31 -33.94070 151.17249 28 ft 7 kts 166°
2026-04-26 07:31 -33.94133 151.17267 28 ft 11 kts 167°
2026-04-26 07:32 -33.94216 151.17290 29 ft 13 kts 167°
2026-04-26 07:32 -33.94307 151.17315 30 ft 14 kts 168°
2026-04-26 07:32 -33.94399 151.17339 32 ft 14 kts 168°
2026-04-26 07:32 -33.94500 151.17364 32 ft 15 kts 169°
2026-04-26 07:33 -33.94612 151.17390 32 ft 17 kts 168°
2026-04-26 07:33 -33.94734 151.17421 31 ft 19 kts 168°
2026-04-26 07:33 -33.94869 151.17457 26 ft 19 kts 167°
2026-04-26 07:33 -33.94987 151.17488 26 ft 17 kts 168°
2026-04-26 07:34 -33.95107 151.17518 31 ft 19 kts 167°
2026-04-26 07:34 -33.95246 151.17555 27 ft 22 kts 167°
2026-04-26 07:34 -33.95372 151.17590 28 ft 11 kts 168°
2026-04-26 07:34 -33.95453 151.17611 26 ft 13 kts 167°
2026-04-26 07:35 -33.95545 151.17634 27 ft 14 kts 168°
2026-04-26 07:35 -33.95642 151.17658 30 ft 14 kts 168°
2026-04-26 07:35 -33.95742 151.17684 31 ft 16 kts 168°
2026-04-26 07:35 -33.95852 151.17712 29 ft 18 kts 167°
2026-04-26 07:36 -33.95979 151.17746 29 ft 19 kts 168°
2026-04-26 07:36 -33.96109 151.17782 31 ft 19 kts 169°
2026-04-26 07:36 -33.96222 151.17809 29 ft 12 kts 168°
2026-04-26 07:36 -33.96305 151.17830 29 ft 12 kts 168°
2026-04-26 07:37 -33.96358 151.17843 29 ft 7 kts 168°
2026-04-26 07:37 -33.96399 151.17856 30 ft 6 kts 158°
2026-04-26 07:37 -33.96430 151.17889 30 ft 6 kts 123°
2026-04-26 07:37 -33.96435 151.17947 30 ft 8 kts 84°
2026-04-26 07:38 -33.96426 151.18005 30 ft 6 kts 71°
2026-04-26 07:38 -33.96395 151.18042 30 ft 7 kts 26°
2026-04-26 07:38 -33.96347 151.18043 30 ft 6 kts 348°
2026-04-26 07:38 -33.96344 151.18042 30 ft 0 kts 348°
2026-04-26 07:39 -33.96292 151.18029 29 ft 32 kts 348°
2026-04-26 07:39 -33.95814 151.17906 28 ft 105 kts 348°
2026-04-26 07:39 -33.94902 151.17670 53 ft 160 kts 348°
2026-04-26 07:39 -33.93861 151.17379 832 ft 150 kts 351°
2026-04-26 07:40 -33.92867 151.17118 1673 ft 144 kts 351°
2026-04-26 07:40 -33.91828 151.16845 1941 ft 164 kts 346°
2026-04-26 07:40 -33.90829 151.16019 2146 ft 190 kts 312°
2026-04-26 07:40 -33.90036 151.14622 2402 ft 213 kts 306°
2026-04-26 07:41 -33.89131 151.13101 2720 ft 233 kts 310°
2026-04-26 07:41 -33.88056 151.11562 3135 ft 246 kts 313°
2026-04-26 07:41 -33.86880 151.10040 3733 ft 251 kts 316°
2026-04-26 07:41 -33.85377 151.08977 4283 ft 255 kts 345°
2026-04-26 07:42 -33.83597 151.08906 4831 ft 262 kts 12°
2026-04-26 07:42 -33.81955 151.09886 5420 ft 268 kts 40°
2026-04-26 07:42 -33.80855 151.11700 6014 ft 272 kts 68°
2026-04-26 07:42 -33.80510 151.13900 6647 ft 274 kts 88°
2026-04-26 07:43 -33.80612 151.16201 7228 ft 276 kts 100°
2026-04-26 07:43 -33.81255 151.18392 7841 ft 278 kts 117°
2026-04-26 07:43 -33.82247 151.20400 8450 ft 281 kts 124°
2026-04-26 07:43 -33.83416 151.22301 9065 ft 284 kts 128°
2026-04-26 07:44 -33.84673 151.24143 9693 ft 286 kts 129°
2026-04-26 07:44 -33.85975 151.25981 10229 ft 292 kts 129°
2026-04-26 07:44 -33.87324 151.27889 10499 ft 307 kts 129°
2026-04-26 07:44 -33.88727 151.29904 10744 ft 321 kts 129°
2026-04-26 07:45 -33.90177 151.32020 10978 ft 334 kts 128°
2026-04-26 07:45 -33.91653 151.34201 11211 ft 346 kts 128°
2026-04-26 07:45 -33.93195 151.36496 11464 ft 357 kts 128°
2026-04-26 07:45 -33.94775 151.38857 11837 ft 363 kts 128°
2026-04-26 07:46 -33.96365 151.41233 12292 ft 366 kts 128°
2026-04-26 07:46 -33.97969 151.43632 12734 ft 369 kts 128°
2026-04-26 07:46 -33.99587 151.46050 13205 ft 371 kts 128°
2026-04-26 07:46 -34.01209 151.48476 13696 ft 373 kts 128°
2026-04-26 07:47 -34.02845 151.50924 14121 ft 376 kts 128°
2026-04-26 07:47 -34.04492 151.53390 14553 ft 378 kts 128°
2026-04-26 07:47 -34.06120 151.55830 14976 ft 379 kts 128°
2026-04-26 07:47 -34.07780 151.58319 15390 ft 382 kts 128°
2026-04-26 07:48 -34.09449 151.60824 15847 ft 383 kts 128°
2026-04-26 07:48 -34.11127 151.63344 16268 ft 386 kts 128°
2026-04-26 07:48 -34.12816 151.65881 16644 ft 389 kts 128°
2026-04-26 07:48 -34.14492 151.68401 17161 ft 388 kts 128°
2026-04-26 07:49 -34.16186 151.70953 17546 ft 391 kts 128°
2026-04-26 07:49 -34.17892 151.73519 18055 ft 391 kts 127°
2026-04-26 07:49 -34.19602 151.76095 18446 ft 394 kts 127°
2026-04-26 07:50 -34.23058 151.81311 19121 ft 399 kts 128°
2026-04-26 07:50 -34.24798 151.83940 19430 ft 402 kts 128°
2026-04-26 07:50 -34.26552 151.86589 19785 ft 404 kts 127°
2026-04-26 07:50 -34.28304 151.89237 20153 ft 405 kts 128°
2026-04-26 07:51 -34.30073 151.91911 20488 ft 407 kts 127°
2026-04-26 07:51 -34.31795 151.94566 20875 ft 407 kts 125°
2026-04-26 07:51 -34.33378 151.97429 21116 ft 411 kts 122°
2026-04-26 07:51 -34.34901 152.00390 21376 ft 415 kts 120°
2026-04-26 07:52 -34.36380 152.03379 21778 ft 415 kts 120°
2026-04-26 07:52 -34.37842 152.06394 22170 ft 415 kts 119°
2026-04-26 07:52 -34.39298 152.09418 22429 ft 418 kts 119°
2026-04-26 07:52 -34.40769 152.12474 22724 ft 420 kts 119°
2026-04-26 07:53 -34.42247 152.15540 23010 ft 423 kts 120°
2026-04-26 07:53 -34.43741 152.18633 23235 ft 427 kts 120°
2026-04-26 07:53 -34.45246 152.21746 23555 ft 428 kts 120°
2026-04-26 07:53 -34.46758 152.24873 23861 ft 430 kts 120°
2026-04-26 07:54 -34.48276 152.28011 24117 ft 432 kts 120°
2026-04-26 07:54 -34.49776 152.31116 24445 ft 431 kts 120°
2026-04-26 07:54 -34.51293 152.34257 24743 ft 432 kts 120°
2026-04-26 07:54 -34.52819 152.37419 24930 ft 435 kts 120°
2026-04-26 07:55 -34.54343 152.40584 25306 ft 434 kts 120°
2026-04-26 07:55 -34.55870 152.43756 25529 ft 436 kts 120°
2026-04-26 07:55 -34.57407 152.46950 25689 ft 441 kts 120°
2026-04-26 07:55 -34.58956 152.50174 25956 ft 442 kts 120°
2026-04-26 07:56 -34.60508 152.53406 26277 ft 442 kts 120°
2026-04-26 07:56 -34.62048 152.56618 26713 ft 440 kts 120°
2026-04-26 07:56 -34.63592 152.59839 26965 ft 443 kts 120°
2026-04-26 07:56 -34.64621 152.61988 27139 ft 445 kts 120°
2026-04-26 07:57 -34.66183 152.65253 27391 ft 448 kts 120°
2026-04-26 07:57 -34.67754 152.68539 27608 ft 452 kts 120°
2026-04-26 07:57 -34.69329 152.71836 28070 ft 450 kts 120°
2026-04-26 07:57 -34.70901 152.75132 28389 ft 452 kts 120°
2026-04-26 07:58 -34.72492 152.78470 28545 ft 458 kts 120°
2026-04-26 07:58 -34.74093 152.81831 28855 ft 460 kts 120°
2026-04-26 07:58 -34.75694 152.85191 29332 ft 459 kts 120°
2026-04-26 07:58 -34.77295 152.88558 29678 ft 461 kts 120°
2026-04-26 07:59 -34.78908 152.91958 29855 ft 467 kts 120°
2026-04-26 07:59 -34.80530 152.95379 30248 ft 468 kts 120°
2026-04-26 07:59 -34.82164 152.98826 30494 ft 471 kts 120°
2026-04-26 07:59 -34.83781 153.02244 30755 ft 474 kts 120°
2026-04-26 08:00 -34.85429 153.05729 31026 ft 476 kts 120°
2026-04-26 08:00 -34.87084 153.09233 31344 ft 477 kts 120°
2026-04-26 08:00 -34.88736 153.12733 31772 ft 476 kts 120°
2026-04-26 08:00 -34.90390 153.16240 32006 ft 478 kts 120°
2026-04-26 08:01 -34.92052 153.19769 32211 ft 481 kts 120°
2026-04-26 08:01 -34.93724 153.23322 32377 ft 485 kts 120°
2026-04-26 08:01 -34.95403 153.26895 32698 ft 486 kts 120°
2026-04-26 08:01 -34.97080 153.30467 33009 ft 485 kts 120°
2026-04-26 08:02 -34.98753 153.34032 33520 ft 481 kts 120°
2026-04-26 08:02 -35.00409 153.37567 33908 ft 480 kts 120°
2026-04-26 08:02 -35.02066 153.41106 34214 ft 480 kts 120°
2026-04-26 08:02 -35.03721 153.44646 34465 ft 482 kts 120°
2026-04-26 08:03 -35.05384 153.48206 34749 ft 481 kts 120°
2026-04-26 08:03 -35.07042 153.51757 34963 ft 483 kts 120°
2026-04-26 08:03 -35.08687 153.55287 35235 ft 482 kts 120°
2026-04-26 08:03 -35.10339 153.58833 35677 ft 478 kts 120°
2026-04-26 08:04 -35.11981 153.62361 36020 ft 477 kts 120°
2026-04-26 08:04 -35.13626 153.65902 36160 ft 481 kts 120°
2026-04-26 08:04 -35.15284 153.69473 36346 ft 483 kts 120°
2026-04-26 08:04 -35.16937 153.73037 36737 ft 480 kts 120°
2026-04-26 08:05 -35.18577 153.76577 37143 ft 477 kts 120°
2026-04-26 08:05 -35.20217 153.80121 37355 ft 478 kts 120°
2026-04-26 08:05 -35.21854 153.83662 37562 ft 480 kts 120°
2026-04-26 08:05 -35.23496 153.87215 37928 ft 477 kts 120°
2026-04-26 08:06 -35.25129 153.90753 38121 ft 479 kts 120°
2026-04-26 08:06 -35.26751 153.94272 38287 ft 481 kts 120°
2026-04-26 08:06 -35.28393 153.97840 38495 ft 481 kts 119°
2026-04-26 08:06 -35.30034 154.01407 38756 ft 480 kts 120°
2026-04-26 08:07 -35.31673 154.04974 39027 ft 479 kts 120°
2026-04-26 08:07 -35.33306 154.08532 39243 ft 478 kts 120°
2026-04-26 08:07 -35.34937 154.12091 39464 ft 478 kts 120°
2026-04-26 08:07 -35.36562 154.15637 39598 ft 479 kts 120°
2026-04-26 08:08 -35.38195 154.19205 39731 ft 480 kts 120°
2026-04-26 08:08 -35.39828 154.22778 39864 ft 480 kts 120°
2026-04-26 08:08 -35.41464 154.26359 39993 ft 481 kts 120°
2026-04-26 08:08 -35.43101 154.29950 40138 ft 482 kts 120°
2026-04-26 08:09 -35.44734 154.33532 40269 ft 482 kts 120°
2026-04-26 08:09 -35.46370 154.37128 40436 ft 482 kts 120°
2026-04-26 08:09 -35.48001 154.40713 40633 ft 481 kts 120°
2026-04-26 08:09 -35.49612 154.44260 40770 ft 481 kts 120°
2026-04-26 08:10 -35.52877 154.51460 40995 ft 482 kts 120°
2026-04-26 08:10 -35.54506 154.55059 41122 ft 483 kts 120°
2026-04-26 08:10 -35.56137 154.58663 41229 ft 483 kts 120°
2026-04-26 08:11 -35.59401 154.65892 41308 ft 484 kts 120°
2026-04-26 08:11 -35.63042 154.72832 41311 ft 483 kts 125°
2026-04-26 08:12 -35.66904 154.79601 41310 ft 483 kts 126°
2026-04-26 08:12 -35.70796 154.86342 41313 ft 483 kts 126°
2026-04-26 08:13 -35.74662 154.93052 41311 ft 483 kts 126°
2026-04-26 08:13 -35.78537 154.99808 41311 ft 483 kts 126°
2026-04-26 08:14 -35.82402 155.06564 41313 ft 482 kts 126°
2026-04-26 08:14 -35.86266 155.13335 41310 ft 482 kts 126°
2026-04-26 08:15 -35.90125 155.20110 41315 ft 482 kts 126°
2026-04-26 08:15 -35.93979 155.26886 41318 ft 482 kts 126°
2026-04-26 08:16 -35.97813 155.33640 41318 ft 482 kts 125°
2026-04-26 08:16 -36.01656 155.40426 41317 ft 482 kts 126°
2026-04-26 08:17 -36.05504 155.47234 41319 ft 483 kts 126°
2026-04-26 08:17 -36.09360 155.54067 41324 ft 484 kts 126°
2026-04-26 08:18 -36.13212 155.60908 41318 ft 484 kts 125°
2026-04-26 08:18 -36.17054 155.67746 41321 ft 483 kts 126°
2026-04-26 08:19 -36.20721 155.74282 41325 ft 483 kts 125°
2026-04-26 08:19 -36.24555 155.81132 41322 ft 483 kts 125°
2026-04-26 08:20 -36.28359 155.87942 41324 ft 483 kts 125°
2026-04-26 08:20 -36.32182 155.94800 41324 ft 483 kts 125°
2026-04-26 08:21 -36.36013 156.01684 41326 ft 483 kts 125°
2026-04-26 08:21 -36.39828 156.08555 41321 ft 483 kts 125°
2026-04-26 08:22 -36.43640 156.15433 41322 ft 484 kts 125°
2026-04-26 08:22 -36.49651 156.26310 41325 ft 485 kts 125°
2026-04-26 08:23 -36.57317 156.40228 41324 ft 485 kts 125°
2026-04-26 08:23 -36.64879 156.54015 41325 ft 485 kts 125°
2026-04-26 08:24 -36.72477 156.67925 41331 ft 484 kts 125°
2026-04-26 08:24 -36.80052 156.81850 41330 ft 485 kts 124°
2026-04-26 08:25 -36.87575 156.95738 41336 ft 486 kts 124°
2026-04-26 08:25 -36.95138 157.09756 41334 ft 485 kts 124°
2026-04-26 08:26 -37.02699 157.23828 41335 ft 486 kts 124°
2026-04-26 08:26 -37.10210 157.37867 41338 ft 485 kts 124°
2026-04-26 08:27 -37.17717 157.51957 41341 ft 486 kts 124°
2026-04-26 08:27 -37.25213 157.66085 41344 ft 486 kts 124°
2026-04-26 08:28 -37.32634 157.80132 41341 ft 486 kts 124°
2026-04-26 08:28 -37.40092 157.94306 41341 ft 485 kts 124°
2026-04-26 08:29 -37.47531 158.08507 41346 ft 485 kts 124°
2026-04-26 08:29 -37.54955 158.22746 41347 ft 486 kts 124°
2026-04-26 08:30 -37.62331 158.36950 41344 ft 487 kts 124°
2026-04-26 08:30 -37.69736 158.51273 41346 ft 487 kts 123°
2026-04-26 08:31 -37.77118 158.65614 41344 ft 487 kts 123°
2026-04-26 08:31 -37.84485 158.79989 41347 ft 487 kts 123°
2026-04-26 08:32 -37.91815 158.94356 41349 ft 488 kts 123°
2026-04-26 08:32 -37.99163 159.08820 41349 ft 488 kts 123°
2026-04-26 08:33 -38.06507 159.23340 41352 ft 487 kts 123°
2026-04-26 08:33 -38.13778 159.37779 41353 ft 487 kts 123°
2026-04-26 08:34 -38.21073 159.52331 41353 ft 488 kts 123°
2026-04-26 08:34 -38.28352 159.66917 41352 ft 489 kts 123°
2026-04-26 08:35 -38.35625 159.81555 41352 ft 489 kts 123°
2026-04-26 08:35 -38.42877 159.96218 41352 ft 489 kts 123°
2026-04-26 08:36 -38.50067 160.10822 41355 ft 489 kts 123°
2026-04-26 08:36 -38.57293 160.25564 41356 ft 490 kts 123°
2026-04-26 08:37 -38.64516 160.40370 41353 ft 490 kts 123°
2026-04-26 08:37 -38.71723 160.55210 41352 ft 490 kts 123°
2026-04-26 08:38 -38.78908 160.70073 41351 ft 491 kts 123°
2026-04-26 08:38 -38.86087 160.84993 41351 ft 491 kts 123°
2026-04-26 08:39 -38.93207 160.99859 41345 ft 493 kts 123°
2026-04-26 08:39 -39.00387 161.14920 41352 ft 494 kts 123°
2026-04-26 08:40 -39.07536 161.29989 41348 ft 494 kts 123°
2026-04-26 08:40 -39.14673 161.45103 41345 ft 494 kts 123°
2026-04-26 08:41 -39.20594 161.57699 41351 ft 494 kts 123°
2026-04-26 08:41 -39.27709 161.72900 41346 ft 495 kts 123°
2026-04-26 08:42 -39.34811 161.88146 41348 ft 495 kts 122°
2026-04-26 08:42 -39.43037 162.05896 41347 ft 495 kts 122°
2026-04-26 08:43 -39.48952 162.18724 41347 ft 495 kts 122°
2026-04-26 08:43 -39.55985 162.34044 41340 ft 496 kts 122°
2026-04-26 08:44 -39.63034 162.49472 41340 ft 497 kts 122°
2026-04-26 08:44 -39.70021 162.64843 41336 ft 498 kts 122°
2026-04-26 08:45 -39.77044 162.80368 41332 ft 497 kts 122°
2026-04-26 08:45 -39.84043 162.95918 41339 ft 498 kts 122°
2026-04-26 08:46 -39.91025 163.11521 41330 ft 499 kts 122°
2026-04-26 08:46 -39.98009 163.27204 41331 ft 500 kts 122°
2026-04-26 08:47 -40.04964 163.42902 41329 ft 500 kts 122°
2026-04-26 08:47 -40.11867 163.58563 41321 ft 500 kts 122°
2026-04-26 08:48 -40.18800 163.74373 41321 ft 501 kts 122°
2026-04-26 08:48 -40.25713 163.90217 41318 ft 502 kts 122°
2026-04-26 08:49 -40.32621 164.06130 41317 ft 502 kts 123°
2026-04-26 08:49 -40.39520 164.22110 41314 ft 502 kts 122°
2026-04-26 08:50 -40.46338 164.37982 41310 ft 503 kts 122°
2026-04-26 08:50 -40.53192 164.54023 41307 ft 503 kts 123°
2026-04-26 08:51 -40.63447 164.78184 41303 ft 504 kts 122°
2026-04-26 08:52 -40.70261 164.94344 41300 ft 504 kts 122°
2026-04-26 08:52 -40.77053 165.10538 41297 ft 505 kts 122°
2026-04-26 08:53 -40.83832 165.26792 41294 ft 505 kts 123°
2026-04-26 08:53 -40.90552 165.42987 41293 ft 506 kts 122°
2026-04-26 08:54 -40.97304 165.59351 41287 ft 506 kts 122°
2026-04-26 08:54 -41.04042 165.75770 41285 ft 506 kts 122°
2026-04-26 08:55 -41.10742 165.92187 41283 ft 506 kts 122°
2026-04-26 08:55 -41.17426 166.08654 41279 ft 507 kts 122°
2026-04-26 08:56 -41.24043 166.25047 41273 ft 507 kts 122°
2026-04-26 08:56 -41.30695 166.41620 41266 ft 508 kts 122°
2026-04-26 08:57 -41.37324 166.58228 41265 ft 508 kts 122°
2026-04-26 08:57 -41.43930 166.74873 41265 ft 508 kts 122°
2026-04-26 08:58 -41.50512 166.91551 41260 ft 508 kts 122°
2026-04-26 08:58 -41.57032 167.08168 41251 ft 508 kts 122°
2026-04-26 08:59 -41.63568 167.24920 41255 ft 508 kts 122°
2026-04-26 08:59 -41.70091 167.41733 41243 ft 509 kts 122°
2026-04-26 09:00 -41.76608 167.58630 41239 ft 511 kts 122°
2026-04-26 09:00 -41.83114 167.75596 41238 ft 513 kts 122°
2026-04-26 09:01 -41.89619 167.92664 41232 ft 513 kts 122°
2026-04-26 09:01 -41.96064 168.09670 41224 ft 515 kts 121°
2026-04-26 09:02 -42.02542 168.26869 41223 ft 516 kts 121°
2026-04-26 09:02 -42.09025 168.44183 41220 ft 519 kts 121°
2026-04-26 09:03 -42.15501 168.61585 41213 ft 519 kts 121°
2026-04-26 09:03 -42.21956 168.79038 41211 ft 520 kts 121°
2026-04-26 09:04 -42.28392 168.96546 41209 ft 521 kts 121°
2026-04-26 09:04 -42.34760 169.13977 41200 ft 521 kts 121°
2026-04-26 09:05 -42.38258 169.23596 41200 ft 521 kts 121°
2026-04-26 09:05 -42.41451 169.32413 41197 ft 521 kts 121°
2026-04-26 09:06 -42.44167 169.41565 41198 ft 525 kts 114°
2026-04-26 09:06 -42.46698 169.50842 41195 ft 526 kts 114°
2026-04-26 09:07 -42.49234 169.60149 41193 ft 526 kts 114°
2026-04-26 09:07 -42.51750 169.69404 41192 ft 526 kts 114°
2026-04-26 09:08 -42.54276 169.78726 41185 ft 526 kts 114°
2026-04-26 09:08 -42.56801 169.88077 41185 ft 527 kts 114°
2026-04-26 09:09 -42.59318 169.97434 41185 ft 527 kts 114°
2026-04-26 09:09 -42.61827 170.06799 41179 ft 528 kts 114°
2026-04-26 09:10 -42.64305 170.16086 40669 ft 524 kts 114°
2026-04-26 09:10 -42.65549 170.20758 39837 ft 528 kts 114°
2026-04-26 09:10 -42.66806 170.25483 38980 ft 534 kts 114°
2026-04-26 09:10 -42.68070 170.30246 38060 ft 537 kts 114°
2026-04-26 09:11 -42.69332 170.35018 37339 ft 536 kts 114°
2026-04-26 09:11 -42.70588 170.39778 36622 ft 535 kts 114°
2026-04-26 09:11 -42.71844 170.44544 35901 ft 535 kts 115°
2026-04-26 09:11 -42.73100 170.49320 35134 ft 537 kts 115°
2026-04-26 09:12 -42.74362 170.54122 34317 ft 540 kts 115°
2026-04-26 09:12 -42.75630 170.58961 33367 ft 544 kts 115°
2026-04-26 09:12 -42.76887 170.63764 32501 ft 546 kts 114°
2026-04-26 09:12 -42.78158 170.68634 31579 ft 547 kts 114°
2026-04-26 09:13 -42.79434 170.73534 30636 ft 550 kts 114°
2026-04-26 09:13 -42.80713 170.78452 29564 ft 553 kts 114°
2026-04-26 09:13 -42.81987 170.83371 28793 ft 548 kts 114°
2026-04-26 09:13 -42.83248 170.88252 28121 ft 542 kts 114°
2026-04-26 09:14 -42.84492 170.93074 27449 ft 537 kts 114°
2026-04-26 09:14 -42.85725 170.97860 26751 ft 532 kts 113°
2026-04-26 09:14 -42.86944 171.02602 26064 ft 528 kts 113°
2026-04-26 09:14 -42.88153 171.07310 25410 ft 523 kts 113°
2026-04-26 09:15 -42.89333 171.11916 24732 ft 520 kts 113°
2026-04-26 09:15 -42.90521 171.16560 24087 ft 515 kts 112°
2026-04-26 09:15 -42.91694 171.21155 23384 ft 511 kts 112°
2026-04-26 09:15 -42.92850 171.25713 22720 ft 505 kts 112°
2026-04-26 09:16 -42.93993 171.30226 22001 ft 501 kts 112°
2026-04-26 09:16 -42.95119 171.34683 21303 ft 495 kts 113°
2026-04-26 09:16 -42.96242 171.39100 20728 ft 488 kts 113°
2026-04-26 09:16 -42.97355 171.43453 20010 ft 482 kts 113°
2026-04-26 09:17 -42.98444 171.47762 19322 ft 477 kts 113°
2026-04-26 09:17 -42.99241 171.50543 18879 ft 470 kts 120°
2026-04-26 09:17 -43.01394 171.55613 18002 ft 456 kts 128°
2026-04-26 09:17 -43.03103 171.59235 17342 ft 449 kts 128°
2026-04-26 09:18 -43.04787 171.62794 16692 ft 442 kts 128°
2026-04-26 09:18 -43.06440 171.66294 16037 ft 435 kts 128°
2026-04-26 09:18 -43.08046 171.69693 15451 ft 428 kts 128°
2026-04-26 09:18 -43.09645 171.73107 14797 ft 423 kts 128°
2026-04-26 09:19 -43.11223 171.76454 14203 ft 414 kts 128°
2026-04-26 09:19 -43.12821 171.79721 13410 ft 410 kts 131°
2026-04-26 09:19 -43.14724 171.82563 12731 ft 400 kts 140°
2026-04-26 09:19 -43.16759 171.85124 12087 ft 393 kts 142°
2026-04-26 09:20 -43.18778 171.87602 11495 ft 387 kts 141°
2026-04-26 09:20 -43.20764 171.90045 11158 ft 374 kts 141°
2026-04-26 09:20 -43.22695 171.92276 11056 ft 353 kts 147°
2026-04-26 09:20 -43.24656 171.94205 10859 ft 339 kts 148°
2026-04-26 09:21 -43.26534 171.96000 10681 ft 325 kts 148°
2026-04-26 09:21 -43.28362 171.97723 10534 ft 312 kts 149°
2026-04-26 09:21 -43.30120 171.99368 10397 ft 300 kts 149°
2026-04-26 09:21 -43.31829 172.00959 10110 ft 294 kts 149°
2026-04-26 09:22 -43.33509 172.02519 9730 ft 290 kts 148°
2026-04-26 09:22 -43.35172 172.04067 9429 ft 287 kts 149°
2026-04-26 09:22 -43.36826 172.05604 9151 ft 286 kts 149°
2026-04-26 09:22 -43.38474 172.07134 8826 ft 285 kts 149°
2026-04-26 09:23 -43.40117 172.08660 8526 ft 284 kts 149°
2026-04-26 09:23 -43.41726 172.10156 8217 ft 283 kts 149°
2026-04-26 09:23 -43.43351 172.11668 7907 ft 282 kts 149°
2026-04-26 09:23 -43.44992 172.13196 7588 ft 280 kts 149°
2026-04-26 09:24 -43.46582 172.14678 7299 ft 279 kts 149°
2026-04-26 09:24 -43.48187 172.16174 6996 ft 278 kts 149°
2026-04-26 09:24 -43.49784 172.17665 6692 ft 277 kts 149°
2026-04-26 09:24 -43.51379 172.19155 6382 ft 276 kts 149°
2026-04-26 09:25 -43.52965 172.20635 6050 ft 275 kts 149°
2026-04-26 09:25 -43.54541 172.22142 5707 ft 276 kts 146°
2026-04-26 09:25 -43.56033 172.23805 5408 ft 276 kts 142°
2026-04-26 09:25 -43.57477 172.25505 5207 ft 266 kts 142°
2026-04-26 09:26 -43.58833 172.27116 4964 ft 249 kts 142°
2026-04-26 09:26 -43.60108 172.28627 4720 ft 234 kts 142°
2026-04-26 09:26 -43.61302 172.30040 4513 ft 219 kts 142°
2026-04-26 09:26 -43.62400 172.31346 4374 ft 202 kts 141°
2026-04-26 09:27 -43.63269 172.32780 4145 ft 191 kts 119°
2026-04-26 09:27 -43.63593 172.34475 3907 ft 179 kts 90°
2026-04-26 09:27 -43.63326 172.36095 3641 ft 170 kts 61°
2026-04-26 09:27 -43.62620 172.37328 3454 ft 160 kts 39°
2026-04-26 09:28 -43.61769 172.38289 3241 ft 156 kts 37°
2026-04-26 09:28 -43.60934 172.39241 3043 ft 155 kts 38°
2026-04-26 09:28 -43.60389 172.39870 2914 ft 154 kts 39°
2026-04-26 09:28 -43.59579 172.40815 2709 ft 151 kts 39°
2026-04-26 09:29 -43.58511 172.42060 2431 ft 152 kts 39°
2026-04-26 09:29 -43.57971 172.42688 2294 ft 148 kts 39°
2026-04-26 09:29 -43.57207 172.43575 2095 ft 139 kts 40°
2026-04-26 09:29 -43.56502 172.44394 1906 ft 131 kts 40°
2026-04-26 09:30 -43.55809 172.45198 1734 ft 130 kts 40°
2026-04-26 09:30 -43.55117 172.46003 1549 ft 130 kts 40°
2026-04-26 09:30 -43.54426 172.46805 1382 ft 130 kts 40°
2026-04-26 09:30 -43.53733 172.47609 1194 ft 129 kts 41°
2026-04-26 09:31 -43.53045 172.48408 1024 ft 129 kts 41°
2026-04-26 09:31 -43.52357 172.49206 837 ft 129 kts 41°
2026-04-26 09:31 -43.51671 172.50003 646 ft 129 kts 41°
2026-04-26 09:31 -43.50988 172.50808 456 ft 130 kts 40°
2026-04-26 09:32 -43.50297 172.51602 293 ft 129 kts 40°
2026-04-26 09:32 -43.49611 172.52378 151 ft 128 kts 40°
2026-04-26 09:32 -43.48969 172.53122 113 ft 105 kts 40°
2026-04-26 09:32 -43.48509 172.53654 116 ft 68 kts 40°
2026-04-26 09:33 -43.48244 172.53959 112 ft 31 kts 40°
2026-04-26 09:33 -43.48159 172.54060 109 ft 6 kts 42°
2026-04-26 09:33 -43.48119 172.54132 110 ft 8 kts 70°
2026-04-26 09:33 -43.48135 172.54197 111 ft 8 kts 135°
2026-04-26 09:34 -43.48201 172.54233 110 ft 13 kts 165°
2026-04-26 09:34 -43.48232 172.54243 111 ft 4 kts 167°
2026-04-26 09:34 -43.48274 172.54247 110 ft 8 kts 191°
2026-04-26 09:34 -43.48328 172.54207 110 ft 10 kts 217°
2026-04-26 09:35 -43.48389 172.54136 111 ft 13 kts 219°
2026-04-26 09:35 -43.48437 172.54081 109 ft 7 kts 217°
2026-04-26 09:35 -43.48489 172.54065 109 ft 8 kts 169°
2026-04-26 09:35 -43.48531 172.54111 111 ft 8 kts 133°
2026-04-26 09:36 -43.48559 172.54154 110 ft 4 kts 130°
2026-04-26 09:36 -43.48585 172.54192 109 ft 6 kts 140°
2026-04-26 09:36 -43.48626 172.54193 110 ft 6 kts 208°
2026-04-26 09:36 -43.48647 172.54161 111 ft 4 kts 232°
2026-04-26 09:37 -43.48656 172.54148 112 ft 0 kts 228°
2026-04-26 09:37 -43.48660 172.54141 112 ft 3 kts 228°
2026-04-26 09:37 -43.48667 172.54130 113 ft 0 kts 228°